Flag for Germany Weather past 2 weeks in Ahlen, North Rhine-Westphalia, Germany

39 °F

Passing clouds.

Feels Like: 37 °F
Forecast: 35 / 44 °F
Wind: 3 mph from North

Location: Muenster / Osnabrueck

Current Time: Oct 14, 2015 at 5:13:35 AM

Latest Report: Oct 14, 2015 at 4:20 AM

Visibility: N/A

Pressure: 30.12 "Hg

Humidity: 87%

Dew point: 36 °F

Location of AhlenLocation

Historic Weather in Ahlen — Graph


Ahlen temperature yesterday

Maximum temperature yesterday: 41 °F (at 12:20 PM)
Minimum temperature yesterday: 34 °F (at 6:20 AM)
Average temperature yesterday: 38 °F

Past Weeks' High & Low Weather Summary

High66 °F (Oct 3, 4:50 PM)100% (Sep 29, 4:20 AM)30.66 "Hg (Sep 29, 4:20 AM)
Low34 °F (Oct 2, 7:20 AM)39% (Oct 2, 2:20 PM)29.59 "Hg (Oct 6, 7:20 AM)
Average51 °F81%30.13 "Hg
* Reported Sep 29 3:20 AM — Oct 14 3:50 AM, Ahlen, Weather by CustomWeather, © 2015

Note: Actual official high and low records may vary slightly from our data, if they occured in-between our weather recording intervals... More about our weather records


Ahlen weather history for previous 24 hours

Time TempWeatherWind HumidityBarometerVisibility
3:50 AM
Wed, Oct 14
39 °FPassing clouds.3 mph87%30.12 "HgN/A
3:20 AM39 °FPassing clouds.3 mph87%30.12 "HgN/A
2:50 AM39 °FPassing clouds.6 mph87%30.12 "HgN/A
2:20 AM39 °FPassing clouds.3 mph87%30.12 "HgN/A
1:50 AM39 °FPassing clouds.2 mph87%30.12 "HgN/A
1:20 AM39 °FPassing clouds.3 mph87%30.12 "HgN/A
12:50 AM39 °FPassing clouds.2 mph87%30.12 "HgN/A
11:20 PM
Tue, Oct 13
39 °FPassing clouds.2 mph81%30.15 "HgN/A
10:50 PM39 °FPassing clouds.3 mph81%30.12 "HgN/A
10:20 PM39 °FPassing clouds.6 mph81%30.12 "HgN/A
9:50 PM39 °FPassing clouds.5 mph81%30.12 "HgN/A
9:20 PM41 °FPassing clouds.5 mph70%30.12 "HgN/A
8:50 PM41 °FPassing clouds.5 mph70%30.12 "HgN/A
8:20 PM41 °FPassing clouds.8 mph70%30.12 "HgN/A
7:50 PM39 °FPassing clouds.8 mph75%30.12 "HgN/A
7:20 PM41 °FPartly sunny.7 mph70%30.12 "HgN/A
6:50 PM41 °FPartly sunny.9 mph70%30.12 "HgN/A
6:20 PM41 °FPartly sunny.6 mph70%30.12 "HgN/A
5:50 PM41 °FPartly sunny.9 mph70%30.12 "HgN/A
5:20 PM39 °FPartly sunny.10 mph75%30.12 "HgN/A
4:50 PM39 °FPartly sunny.12 mph81%30.12 "HgN/A
4:20 PM39 °FPartly sunny.12 mph81%30.12 "HgN/A
3:50 PM41 °FPartly sunny.8 mph76%30.09 "HgN/A
3:20 PM41 °FPartly sunny.8 mph76%30.09 "HgN/A
2:50 PM41 °FPartly sunny.12 mph76%30.09 "HgN/A
2:20 PM41 °FPartly sunny.12 mph70%30.09 "HgN/A
1:50 PM41 °FPartly sunny.12 mph76%30.09 "HgN/A
1:20 PM41 °FPartly sunny.12 mph76%30.09 "HgN/A
12:50 PM39 °FPartly sunny.9 mph81%30.09 "HgN/A
12:20 PM41 °FPartly sunny.8 mph76%30.09 "HgN/A
11:50 AM39 °FPartly sunny.8 mph81%30.09 "HgN/A
11:20 AM39 °FPartly sunny.10 mph81%30.09 "Hg6 mi
10:50 AM39 °FPartly sunny.10 mph81%30.09 "Hg6 mi
10:20 AM37 °FPartly sunny.8 mph87%30.09 "Hg6 mi
9:50 AM37 °FPartly sunny.10 mph87%30.09 "Hg6 mi
9:20 AM37 °FPartly sunny.9 mph87%30.07 "Hg6 mi
8:50 AM36 °FClear.7 mph93%30.07 "Hg6 mi
8:20 AM34 °FClear.8 mph93%30.07 "Hg6 mi
7:50 AM34 °FPassing clouds.8 mph93%30.04 "HgN/A
7:20 AM34 °FPassing clouds.7 mph93%30.04 "HgN/A
6:50 AM34 °FPassing clouds.7 mph93%30.04 "HgN/A
6:20 AM34 °FPassing clouds.7 mph93%30.04 "HgN/A
5:20 AM36 °FPassing clouds.7 mph87%30.04 "HgN/A
Weather by CustomWeather, © 2015

See weather overviewHow to use our weather pages